Home > Weather > Ghent > Past weeks

Flag for Belgium Past Weather in Ghent, Belgium — Yesterday and Last 2 Weeks

Now
70 °F

Mild.


Feels Like: 75 °F
Forecast: 62 / 72 °F
Wind: 5 mph from Southwest

Location: Munte

Current Time: Jul 28, 2016 at 2:24:34 PM

Latest Report: Jul 28, 2016 at 1:00 PM


Visibility: 10 mi

Pressure: 29.99 "Hg

Humidity: 63%

Dew Point: 57 °F

Location of GhentLocation

Past Weather in Ghent — Graph

°F

Ghent Temperature Yesterday

Maximum temperature yesterday: 70 °F (at 3:00 PM)
Minimum temperature yesterday: 55 °F (at 5:00 AM)
Average temperature yesterday: 63 °F

High & Low Weather Summary for the Past Weeks

 TemperatureHumidityPressure
High88 °F (Jul 19, 5:00 PM)100% (Jul 23, 4:00 AM)30.32 "Hg (Jul 23, 4:00 AM)
Low51 °F (Jul 15, 2:00 AM)40% (Jul 19, 6:00 PM)29.85 "Hg (Jul 20, 11:00 AM)
Average67 °F74%30.12 "Hg
* Reported Jul 13 1:00 PM — Jul 28 1:00 PM, Ghent, Weather by CustomWeather, © 2016

Note: Actual official high and low records may vary slightly from our data, if they occured in-between our weather recording intervals... More about our weather records

Advertising

Ghent Weather History for the Previous 24 Hours

Scroll right to see more
 ConditionsComfort  
Time TempWeatherWind HumidityBarometerVisibility
1:00 PM
Thu, Jul 28
70 °FMild.5 mph63%29.99 "Hg10 mi
12:00 PM69 °FMild.5 mph69%29.98 "Hg12 mi
11:00 AM68 °FMild.5 mph70%29.98 "Hg12 mi
10:00 AM66 °FMild.3 mph82%29.98 "Hg10 mi
9:00 AM64 °FMild.3 mph90%29.98 "Hg8 mi
8:00 AM63 °FMild.2 mph93%29.98 "Hg8 mi
7:00 AM63 °FMild.2 mph93%29.98 "Hg8 mi
6:00 AM62 °FCool.2 mph94%29.98 "Hg9 mi
5:00 AM63 °FMild.2 mph92%29.99 "Hg11 mi
4:00 AM63 °FMild.2 mph96%29.99 "Hg9 mi
3:00 AM63 °FMild.2 mph96%30.01 "Hg9 mi
2:00 AM63 °FMild.2 mph98%30.02 "Hg9 mi
1:00 AM65 °FMild.2 mph87%30.02 "Hg12 mi
12:00 AM65 °FMild.2 mph87%30.03 "Hg12 mi
11:00 PM
Wed, Jul 27
65 °FMild.2 mph89%30.03 "Hg12 mi
10:00 PM64 °FMild.2 mph91%30.03 "Hg12 mi
9:00 PM66 °FMild.3 mph84%30.03 "Hg12 mi
8:00 PM66 °FMild.6 mph80%30.03 "Hg7 mi
7:00 PM67 °FMild.6 mph74%30.03 "Hg12 mi
6:00 PM68 °FMild.6 mph72%30.04 "Hg12 mi
5:00 PM69 °FMild.6 mph69%30.03 "Hg12 mi
4:00 PM69 °FMild.6 mph67%30.03 "Hg12 mi
3:00 PM70 °FMild.6 mph64%30.04 "Hg12 mi
2:00 PM69 °FMild.6 mph68%30.05 "Hg12 mi
Weather by CustomWeather, © 2016

See weather overviewHow to use our weather pages